EW3719 Weather Reports


Display with metric or nautical units.
time (UTC)temp
F
wind
direction
speed
MPH
gust
MPH
rain 1hr
in
rain 24hr
in
rain mn
in
humidity
%
barometer
mb
20260905203038 72 345 2.0 6.0 0.00 0.00 0.00 72 1013.1
20260905201536 73 266 1.0 5.0 0.00 0.00 0.00 74 1013.1
20260905200037 72 35 4.0 8.0 0.00 0.00 0.00 71 1013.3
20260905194540 72 11 3.0 5.0 0.00 0.00 0.00 73 1013.2
20260905193035 72 49 4.0 8.0 0.00 0.00 0.00 75 1013.2
20260905191540 71 7 4.0 9.0 0.00 0.00 0.00 74 1013.2
20260905190044 72 30 1.0 8.0 0.00 0.00 0.00 77 1013.2
20260905184538 71 27 5.0 9.0 0.00 0.00 0.00 75 1013.3
20260905183029 71 26 7.0 11.0 0.00 0.00 0.00 76 1013.3
20260905181528 71 32 4.0 12.0 0.00 0.00 0.00 79 1013.2
20260905180028 70 56 7.0 12.0 0.00 0.00 0.00 78 1013.1
20260905174526 69 25 5.0 10.0 0.00 0.00 0.00 82 1013.4
20260905173023 69 359 6.0 11.0 0.00 0.00 0.00 81 1013.4
20260905171525 69 45 4.0 9.0 0.00 0.00 0.00 80 1013.4
20260905170022 69 48 7.0 0.0 0.00 0.00 0.00 80 1013.6
20260905164520 69 58 5.0 10.0 0.00 0.00 0.00 80 1013.6
20260905163016 67 290 0.0 4.0 0.00 0.00 0.00 84 1013.7
20260905161515 67 8 0.0 4.0 0.00 0.00 0.00 85 1013.7
20260905160019 67 300 3.0 7.0 0.00 0.00 0.00 84 1013.8
20260905154513 67 202 3.0 6.0 0.00 0.00 0.00 84 1013.6
20260905153011 66 332 3.0 6.0 0.00 0.00 0.00 86 1013.8
20260905151513 64 9 1.0 8.0 0.00 0.00 0.00 89 1014.0
20260905150009 64 51 2.0 8.0 0.00 0.00 0.00 89 1014.1
20260905144519 64 42 1.0 10.0 0.00 0.00 0.00 88 1014.0
20260905143008 64 60 5.0 10.0 0.00 0.00 0.00 87 1013.9
20260905141508 64 25 0.0 7.0 0.00 0.00 0.00 89 1013.9
20260905140006 64 49 1.0 7.0 0.00 0.00 0.00 89 1013.7
20260905134506 64 59 2.0 6.0 0.00 0.00 0.00 88 1013.7
20260905133105 64 50 1.0 6.0 0.00 0.00 0.00 89 1013.7
20260905131506 63 66 1.0 7.0 0.00 0.00 0.00 90 1013.9
20260905130002 63 56 4.0 10.0 0.00 0.00 0.00 89 1013.7
20260905124502 63 58 5.0 10.0 0.00 0.00 0.00 89 1013.7
20260905123101 63 326 3.0 6.0 0.00 0.00 0.00 90 1013.6
20260905121602 63 42 0.0 7.0 0.00 0.00 0.00 90 1013.5
20260905120058 62 9 3.0 8.0 0.00 0.00 0.00 91 1013.4
20260905114556 62 5 3.0 6.0 0.00 0.00 0.00 91 1013.2
20260905113055 62 30 3.0 6.0 0.00 0.00 0.00 91 1012.9
20260905111555 62 20 1.0 5.0 0.00 0.00 0.00 92 1012.8
20260905110050 62 41 1.0 6.0 0.00 0.00 0.00 92 1012.6
20260905104555 61 2 2.0 5.0 0.00 0.00 0.00 93 1012.4
20260905103052 61 43 0.0 4.0 0.00 0.00 0.00 92 1012.5
20260905101548 62 30 2.0 8.0 0.00 0.00 0.00 92 1012.4
20260905100055 62 41 4.0 8.0 0.00 0.00 0.00 91 1012.3
20260905094544 63 356 4.0 8.0 0.00 0.00 0.00 90 1012.2
20260905093042 63 1 4.0 9.0 0.00 0.00 0.00 90 1012.2
20260905091541 63 306 3.0 8.0 0.00 0.00 0.00 89 1012.3
20260905090057 63 330 1.0 5.0 0.00 0.00 0.00 89 1012.2
20260905084540 64 311 2.0 6.0 0.00 0.00 0.00 89 1012.2
20260905083045 64 12 2.0 4.0 0.00 0.00 0.00 89 1012.3
20260905081543 64 347 1.0 5.0 0.00 0.00 0.00 88 1012.2
20260905080043 64 15 3.0 7.0 0.00 0.00 0.00 88 1012.2
20260905074532 65 18 1.0 8.0 0.00 0.00 0.00 87 1012.2
20260905073032 65 333 1.0 4.0 0.00 0.00 0.00 87 1012.1
20260905071531 65 37 0.0 6.0 0.00 0.00 0.00 87 1012.0
20260905070032 65 333 4.0 7.0 0.00 0.00 0.00 86 1012.2
20260905064531 65 5 3.0 7.0 0.00 0.00 0.00 86 1012.2
20260905063027 65 315 2.0 6.0 0.00 0.00 0.00 86 1012.2
20260905061527 65 316 2.0 5.0 0.00 0.00 0.00 86 1012.3
20260905060033 66 326 0.0 5.0 0.00 0.00 0.00 85 1012.3
20260905054535 66 18 0.0 6.0 0.00 0.00 0.00 85 1012.3
20260905053023 66 339 3.0 10.0 0.00 0.00 0.00 84 1012.4
20260905051528 66 329 3.0 8.0 0.00 0.00 0.00 84 1012.5
20260905050020 66 325 3.0 5.0 0.00 0.00 0.00 85 1012.6
20260905044524 66 266 0.0 3.0 0.00 0.00 0.00 84 1012.6
20260905043017 65 295 2.0 5.0 0.00 0.00 0.00 85 1012.6
20260905041514 64 326 0.0 1.0 0.00 0.00 0.00 87 1012.6
20260905040013 64 248 0.0 1.0 0.00 0.00 0.00 87 1012.6
20260905034512 65 141 0.0 1.0 0.00 0.00 0.00 85 1012.5
20260905033011 65 36 0.0 5.0 0.00 0.00 0.00 84 1012.6
20260905031511 65 53 0.0 4.0 0.00 0.00 0.00 85 1012.7
20260905030010 66 345 0.0 4.0 0.00 0.00 0.00 84 1012.7
20260905024509 66 341 0.0 6.0 0.00 0.00 0.00 83 1012.8
20260905023010 66 343 2.0 7.0 0.00 0.00 0.00 82 1012.7
20260905021508 67 23 3.0 8.0 0.00 0.00 0.00 82 1012.8
20260905020011 67 5 2.0 7.0 0.00 0.00 0.00 81 1012.6
20260905014508 68 360 4.0 12.0 0.00 0.00 0.00 79 1012.7
20260905013010 68 326 4.0 12.0 0.00 0.00 0.00 78 1012.9
20260905011513 69 315 5.0 10.0 0.00 0.00 0.00 78 1012.8
20260905010007 68 336 3.0 6.0 0.00 0.00 0.00 80 1012.7
20260905004505 67 315 0.0 0.0 0.00 0.00 0.00 84 1012.6
20260905003004 68 315 0.0 0.0 0.00 0.00 0.00 80 1012.6
20260905001506 69 326 0.0 1.0 0.00 0.00 0.00 79 1012.5
20260905000002 70 326 2.0 4.0 0.00 0.00 0.00 78 1012.3
20260904234502 70 335 2.0 4.0 0.00 0.00 0.00 77 1011.9
20260904233001 71 346 1.0 4.0 0.00 0.00 0.00 76 1011.6
20260904231500 71 349 2.0 5.0 0.00 0.00 0.00 75 1011.7
20260904230111 72 25 1.0 7.0 0.00 0.00 0.00 75 1011.7
20260904224559 72 13 4.0 8.0 0.00 0.00 0.00 74 1011.7
20260904223104 73 13 4.0 10.0 0.00 0.00 0.00 72 1011.7
20260904221603 73 349 1.0 5.0 0.00 0.00 0.00 73 1011.8
20260904220118 73 10 0.0 2.0 0.00 0.00 0.00 74 1011.8
20260904214557 73 27 0.0 3.0 0.00 0.00 0.00 73 1012.0
20260904213057 73 328 1.0 3.0 0.00 0.00 0.00 72 1011.8
20260904211556 73 295 0.0 2.0 0.00 0.00 0.00 74 1011.7
20260904210056 73 281 0.0 4.0 0.00 0.00 0.00 77 1011.8
20260904204555 73 251 4.0 9.0 0.00 0.00 0.00 71 1011.9